User: anonymous   Login
Location: Unspecified
(0.0000°N, 0.0000°E)
Time: 21:52:00
(UTC+00:00)
Language:

STARLINK-2727 - Orbit

View from above orbital plane
View from above orbital plane
View from above satellite
View from above satellite

Ground track
Ground track

The orbit is defined by the following mean orbital elements,

1 48652U          26145.33691565 +.00000000 +00000-0 +75271-3 0 00009
2 48652  53.0485 103.8418 0001327 126.4287 233.6853 15.70576338    05
Epoch (UTC): 25 May 2026 08:05:09
Eccentricity: 0.0001327
inclination: 53.0485°
perigee height: 356 km
apogee height: 358 km
right ascension of ascending node: 103.8418°
argument of perigee: 126.4287°
revolutions per day: 15.70576338
mean anomaly at epoch: 233.6853°

The dashed part of the orbit path shows where the satellite is in the earth's shadow,  

DLR